Lexington Weather

Lexington, Massachusetts, USA

29°F
3/6/2021 6:42pm 
  • Lexington Conditions: Partly cloudy
  • Temperature: 29.1°F / -1.6°CColder 1.5°F than last hour.
  • Dew Point: 12.4°FDecreased 0.3°Fsince last hour.
  • Relative Humidity: 49%Increased 2.0% since last hour.
  • Wind: Wind from WNW WNW 1 mph, 10-min avg: 2 mph, gust: 8 mph
  • Barometer: 30.02 inRising 0.03  inHg/hr Rising Slowly
  • Visibility: 10 miles
  • Snow Today: 0.0 in
  •   

Regional Weather Roundup
for Boston / Norton, MA

        
000
ASUS41 KBOX 280704
RWRBOX

REGIONAL WEATHER ROUNDUP
NATIONAL WEATHER SERVICE BOSTON/NORTON MA
200 AM EST SUN FEB 28 2021

NOTE:  "FAIR" INDICATES FEW OR NO CLOUDS BELOW 12,000 FEET WITH NO 
SIGNIFICANT WEATHER AND/OR OBSTRUCTIONS TO VISIBILITY.

MAZALL-280800-
EASTERN MASSACHUSETTS
  
CITY           SKY/WX    TMP DP  RH WIND       PRES   REMARKS
BOSTON         MOCLDY    38  30  73 NW8       30.20R                  
BEVERLY        MOCLDY    39  31  72 NW8       30.17R                  
LAWRENCE       PTCLDY    38  31  76 W6        30.20R                  
BEDFORD        PTCLDY    37  30  75 NW5       30.18R                  
BLUE HILL        N/A     37  34  89 NW13      30.16R WCI  29          
NORWOOD        MOCLDY    35  30  82 CALM      30.20R                  
MARSHFIELD     MOCLDY    41  34  75 VRB3G12   30.18S                  
PLYMOUTH       MOCLDY    37  34  89 NW6       30.18R                  
TAUNTON        FOG       32  30  92 CALM      30.19R VSB 1            
NEW BEDFORD    MOCLDY    38  34  85 CALM      30.19R                  
$$

MAZALL-280800-
CAPE COD AND THE ISLANDS
  
CITY           SKY/WX    TMP DP  RH WIND       PRES   REMARKS
FALMOUTH       CLEAR     36  36 100 CALM      30.20R                  
HYANNIS        MOCLDY    42  36  79 NW5       30.18R                  
CHATHAM        MOCLDY    43  35  73 NW7       30.19R                  
PROVINCETOWN   MOCLDY    40  35  83 NW9       30.20R                  
NANTUCKET        N/A    N/A N/A N/A MISG      30.20R                  
MARTHAS VNYRD  CLOUDY    34  34 100 CALM      30.20R FOG              
$$
 
MAZALL-280800-
CENTRAL AND WESTERN MASSACHUSETTS
  
CITY           SKY/WX    TMP DP  RH WIND       PRES   REMARKS
WORCESTER      PTCLDY    38  28  67 NW10      30.16R WCI  31          
FITCHBURG      PTCLDY    34  31  88 NW9       30.19S WCI  27          
ORANGE         CLEAR     28  27  96 NE3       30.21R FOG              
SPRINGFIELD    MOCLDY    31  31  99 N7        30.20R WCI  24          
WESTFIELD      MOCLDY    34  30  85 E6        30.21R WCI  29          
NORTH ADAMS    PTCLDY    37  28  70 W12       30.22F WCI  29          
PITTSFIELD     MOCLDY    34  28  79 CALM      30.19F                  
$$
 
RIZALL-280800-
RHODE ISLAND
  
CITY           SKY/WX    TMP DP  RH WIND       PRES   REMARKS
PROVIDENCE     CLOUDY    41  33  73 NW3       30.20R                  
NEWPORT        CLOUDY    40  33  76 NW5       30.19R                  
BLOCK ISLAND   CLOUDY    39  36  89 W5        30.22R                  
SMITHFIELD     MOCLDY    37  33  85 N5        30.19R                  
WESTERLY       CLOUDY    35  33  92 SW3       30.21R                  
$$
 
CTZALL-280800-
CONNECTICUT
  
CITY           SKY/WX    TMP DP  RH WIND       PRES   REMARKS
BRADLEY INTL   MOCLDY    37  30  75 N6        30.22R                  
HARTFORD       CLOUDY    39  31  72 NW6       30.23R                  
BRIDGEPORT     CLOUDY    37  34  89 CALM      30.23                   
DANBURY        CLOUDY    42  28  57 N6        30.23R                  
GROTON         CLOUDY    39  33  79 CALM      30.22R                  
NEW HAVEN      CLOUDY    36  35  96 CALM      30.22R                  
CHESTER        FAIR      39  32  75 NW5       30.21R                  
MERIDEN        CLOUDY    37  31  78 CALM      30.22R                  
WILLIMANTIC    CLOUDY    37  31  78 CALM      30.20R                  
OXFORD         CLOUDY    37  32  82 N9        30.21R WCI  30          
$$

MEZ002-015-021-024-NHZ003-005-008-011-012-014-VTZ005-008-280800-
NORTHERN NEW ENGLAND
  
CITY           SKY/WX    TMP DP  RH WIND       PRES   REMARKS
PORTLAND ME    PTCLDY    37  28  70 W20       30.12R WCI  27          
BANGOR ME      PTCLDY    35  28  75 W6        30.05R WCI  30          
CONCORD NH     CLEAR     35  28  75 W6        30.17R WCI  30          
MANCHESTER NH  CLEAR     36  29  75 W6        30.18R WCI  31          
NASHUA NH      CLEAR     29  29 100 NW9       30.20R WCI  20          
PORTSMOUTH NH  MOCLDY    38  29  70 W6        30.15R                  
JAFFREY NH     CLEAR     28  27  96 CALM      30.19R                  
KEENE NH       CLEAR     29  29 100 CALM      30.22R                  
BURLINGTON VT  CLOUDY    39  28  64 N6        30.23R                  
MT. WASHINGTON SNOWSHWR  12  12 100 NW69G75     N/A  VSB 0   WCI -17  
$$

NYZ052-076-280800-
EASTERN NEW YORK
  
CITY           SKY/WX    TMP DP  RH WIND       PRES   REMARKS
ALBANY         MOCLDY    32  27  81 NW3       30.26S                  
NEW YORK CITY  CLOUDY    44  33  65 N5        30.24R                  
$$
 
ANZALL-280800-
MARINE OBSERVATIONS
  
STATION/POSITION TIME  TEMP    WIND        PRES    VSBY  WAVE
                       AIR SEA DIR/SP/G                  HT/PER
                 (UTC) (F)     (DEG/KT/KT) (MB)    (MI)  (FT/S)
BOSTON BUOY      0640   40 39  290/ 10/ 12 1022.5R
BUZZARDS BAY     0600          280/ 10/ 11 1023.4R
NANTUCKET SOUND  0640      37  280/  6/  8   N/A
MASS BAY-STELLWA 0604   41     300/ 14/ 17 1020.3R  1 7/8  3/ 8
ISLE OF SHOALS   0600   40     270/ 13/ 14 1020.6R
S OF BLOCK IS    0626      40                N/A           9/10
$$

......................KEY.........................
  SKY/WX - SKY CONDITION/PRESENT WEATHER
  TMP    - TEMPERATURE IN FAHRENHEIT
  DWPT   - DEWPOINT IN FAHRENHEIT
  RH     - RELATIVE HUMIDITY IN PERCENT
  WIND   - DIRECTION AND SPEED IN MPH
  PRES   - MEAN SEA LEVEL PRESSURE IN INCHES OF HG
  WCI    - WIND CHILL INDEX
  VSB    - VISIBILITY IN MILES
  HX     - HEAT INDEX
  TC     - TEMPERATURE IN CELSIUS
  VRB    - VARIABLE WIND DIRECTION
  N/A    - NOT AVAILABLE
  
      

Other recent Regional Weather Roundups

Sat Mar 6, 6:04pm

Sat Mar 6, 5:04pm

Sat Mar 6, 4:05pm

Sat Mar 6, 3:04pm

Sat Mar 6, 2:04pm

Sat Mar 6, 1:05pm

Sat Mar 6, 12:04pm

Sat Mar 6, 11:04am

Sat Mar 6, 10:04am

Sat Mar 6, 9:04am

Sat Mar 6, 8:04am

Sat Mar 6, 7:04am

Sat Mar 6, 6:04am

Sat Mar 6, 5:04am

Sat Mar 6, 4:04am

Sat Mar 6, 3:04am

Sat Mar 6, 2:04am

Sat Mar 6, 1:04am

Sat Mar 6, 12:04am

Fri Mar 5, 11:04pm

Fri Mar 5, 10:04pm

Fri Mar 5, 9:04pm

Fri Mar 5, 8:04pm

Fri Mar 5, 7:04pm

Fri Mar 5, 6:04pm

Fri Mar 5, 5:04pm

Fri Mar 5, 4:05pm

Fri Mar 5, 3:04pm

Fri Mar 5, 2:04pm

Fri Mar 5, 1:04pm

Fri Mar 5, 12:04pm

Fri Mar 5, 11:04am

Fri Mar 5, 10:04am

Fri Mar 5, 9:04am

Fri Mar 5, 8:04am

Fri Mar 5, 7:04am

Fri Mar 5, 6:04am

Fri Mar 5, 5:04am

Fri Mar 5, 4:04am

Fri Mar 5, 3:04am

Fri Mar 5, 2:04am

Fri Mar 5, 1:04am

Fri Mar 5, 12:04am

Thu Mar 4, 11:04pm

Thu Mar 4, 10:04pm

Thu Mar 4, 9:04pm

Thu Mar 4, 8:04pm

Thu Mar 4, 7:04pm

Thu Mar 4, 6:04pm

Thu Mar 4, 5:04pm

Thu Mar 4, 4:04pm

Thu Mar 4, 3:04pm

Thu Mar 4, 2:04pm

Thu Mar 4, 1:04pm

Thu Mar 4, 12:04pm

Thu Mar 4, 11:04am

Thu Mar 4, 10:04am

Thu Mar 4, 9:04am

Thu Mar 4, 8:04am

Thu Mar 4, 7:04am

Thu Mar 4, 6:04am

Thu Mar 4, 5:04am

Thu Mar 4, 4:04am

Thu Mar 4, 3:04am

Thu Mar 4, 2:04am

Thu Mar 4, 1:04am

Thu Mar 4, 12:04am

Wed Mar 3, 11:04pm

Wed Mar 3, 10:04pm

Wed Mar 3, 9:04pm

Wed Mar 3, 8:04pm

Wed Mar 3, 7:04pm

Wed Mar 3, 6:04pm

Wed Mar 3, 5:04pm

Wed Mar 3, 4:04pm

Wed Mar 3, 3:04pm

Wed Mar 3, 2:04pm

Wed Mar 3, 1:04pm

Wed Mar 3, 12:04pm

Wed Mar 3, 11:04am

Wed Mar 3, 10:04am

Wed Mar 3, 9:04am

Wed Mar 3, 8:04am

Wed Mar 3, 7:04am

Wed Mar 3, 6:05am

Wed Mar 3, 5:04am

Wed Mar 3, 4:04am

Wed Mar 3, 3:04am

Wed Mar 3, 2:04am

Wed Mar 3, 1:04am

Wed Mar 3, 12:04am

Tue Mar 2, 11:04pm

Tue Mar 2, 10:05pm

Tue Mar 2, 9:04pm

Tue Mar 2, 8:04pm

Tue Mar 2, 7:04pm

Tue Mar 2, 6:04pm

Tue Mar 2, 5:04pm

Tue Mar 2, 4:05pm

Tue Mar 2, 3:04pm

Tue Mar 2, 2:04pm

Tue Mar 2, 1:04pm

Tue Mar 2, 12:04pm

Tue Mar 2, 11:04am

Tue Mar 2, 10:05am

Tue Mar 2, 9:04am

Tue Mar 2, 8:04am

Tue Mar 2, 7:04am

Tue Mar 2, 6:05am

Tue Mar 2, 5:04am

Tue Mar 2, 4:04am

Tue Mar 2, 3:04am

Tue Mar 2, 2:04am

Tue Mar 2, 1:04am

Tue Mar 2, 12:04am

Mon Mar 1, 11:04pm

Mon Mar 1, 10:04pm

Mon Mar 1, 9:04pm

Mon Mar 1, 8:04pm

Mon Mar 1, 7:04pm

Mon Mar 1, 6:04pm

Mon Mar 1, 5:04pm

Mon Mar 1, 4:05pm

Mon Mar 1, 3:05pm

Mon Mar 1, 2:04pm

Mon Mar 1, 1:04pm

Mon Mar 1, 12:04pm

Mon Mar 1, 11:04am

Mon Mar 1, 10:04am

Mon Mar 1, 9:04am

Mon Mar 1, 8:05am

Mon Mar 1, 7:04am

Mon Mar 1, 6:04am

Mon Mar 1, 5:04am

Mon Mar 1, 4:05am

Mon Mar 1, 3:04am

Mon Mar 1, 2:04am

Mon Mar 1, 1:04am

Mon Mar 1, 12:05am

Sun Feb 28, 11:04pm

Sun Feb 28, 10:04pm

Sun Feb 28, 9:04pm

Sun Feb 28, 8:04pm

Sun Feb 28, 7:04pm

Sun Feb 28, 6:05pm

Sun Feb 28, 5:04pm

Sun Feb 28, 4:05pm

Sun Feb 28, 3:04pm

Sun Feb 28, 2:04pm

Sun Feb 28, 1:04pm

Sun Feb 28, 12:04pm

Sun Feb 28, 11:04am

Sun Feb 28, 10:04am

Sun Feb 28, 9:04am

Sun Feb 28, 8:04am

Sun Feb 28, 7:04am

Sun Feb 28, 6:04am

Sun Feb 28, 5:04am

Sun Feb 28, 4:04am

Sun Feb 28, 3:04am

Sun Feb 28, 1:04am

Sun Feb 28, 12:04am

Sat Feb 27, 11:04pm

Sat Feb 27, 10:04pm

Sat Feb 27, 9:04pm

Sat Feb 27, 8:04pm

Sat Feb 27, 7:04pm

Meta data:

ID: 8a29d91a-a53f-4799-8a34-e956639172e8
Link: https://api.weather.gov/products/8a29d91a-a53f-4799-8a34-e956639172e8